Theta_e
317 317 317 317 317 317 317 317 317 317 318 318 319 319 320 317 318 320 310 315 317 328 323 319 321 321 321 317 318 317 308 305 309 312 315 319 318 321 324 324 321 324 328 340 351
316 316 316 317 316 317 316 317 317 317 317 318 319 319 319 319 317 312 325 322 326 330 317 314 314 318 314 314 315 311 306 306 312 315 315 318 318 319 316 317 318 322 340 345 351
316 316 316 316 316 316 316 316 317 317 317 318 318 318 319 320 312 309 326 327 329 327 318 318 315 315 311 313 312 311 306 310 311 313 315 315 316 318 315 314 318 317 334 345 347
315 315 315 315 315 315 316 316 317 317 317 317 317 317 318 319 300 312 330 329 330 320 317 313 313 310 308 307 311 306 310 311 312 314 313 313 315 313 316 318 321 320 328 344 345
315 315 315 315 315 315 315 316 316 317 317 316 316 317 318 308 307 316 330 330 322 316 310 311 311 309 306 308 309 307 308 310 311 312 313 314 312 313 315 319 321 321 329 339 344
315 315 315 314 314 315 316 316 316 316 316 316 317 318 314 303 312 320 320 325 322 316 312 311 310 313 309 308 307 309 308 308 310 310 311 310 311 313 316 318 320 320 327 334 341
314 314 314 314 314 315 316 316 316 317 316 317 319 318 309 308 313 316 314 315 320 320 311 313 313 311 310 307 311 309 304 307 307 308 307 310 306 309 316 316 316 320 326 332 339
314 313 313 314 315 315 316 315 318 318 318 318 320 317 308 315 317 314 315 318 319 316 313 314 315 312 309 310 306 304 305 300 307 308 308 307 301 308 314 316 315 319 321 327 336
313 313 313 314 315 315 315 315 320 319 320 321 319 313 307 315 313 316 316 314 313 313 313 312 312 309 308 303 302 303 298 300 303 307 307 306 303 309 313 314 314 316 320 324 330
313 312 312 314 315 315 314 315 321 321 321 320 316 309 311 308 311 312 316 316 310 310 310 308 308 305 305 303 295 298 299 300 300 305 306 304 304 309 312 312 313 315 316 320 325
313 312 312 313 314 314 314 319 313 309 310 305 305 305 308 312 314 312 315 314 312 309 304 307 302 299 303 304 304 302 300 299 303 305 303 304 304 307 310 311 312 314 318 319 322
312 312 312 313 313 313 314 307 305 306 302 307 306 306 309 310 305 309 314 308 307 303 307 303 299 304 304 304 301 300 299 299 302 304 303 303 303 307 309 310 311 312 315 320 326
311 311 311 312 312 313 310 306 311 309 303 304 308 307 308 310 305 307 310 309 306 303 304 301 303 304 303 301 299 300 298 299 299 303 304 302 300 303 307 310 311 313 315 319 324
310 310 310 310 310 311 309 311 312 311 300 301 304 306 308 309 304 310 310 307 306 303 304 303 305 302 301 300 301 297 302 301 300 299 295 303 294 303 306 307 309 311 313 316 318
310 310 310 309 311 307 308 312 312 309 290 301 303 311 308 305 305 306 309 307 303 303 303 301 301 300 299 300 303 299 303 301 300 299 298 298 296 300 306 304 307 310 313 315 317
309 309 309 312 312 310 311 311 311 300 289 297 301 300 302 303 303 306 305 308 307 303 304 302 306 303 303 304 304 304 301 301 301 299 292 297 297 298 302 304 307 310 312 314 316
308 308 309 312 305 310 311 311 298 291 298 295 295 298 298 297 299 300 300 300 300 297 298 301 302 304 305 301 305 302 299 292 291 291 290 299 297 300 305 307 309 312 314 316 318
306 306 308 311 311 310 312 303 291 294 294 297 296 297 295 296 297 297 297 297 298 298 297 295 294 301 303 302 301 302 300 293 287 289 292 299 293 299 308 311 313 313 315 317 319
305 314 314 311 310 312 307 294 294 294 294 294 296 293 294 294 294 295 294 294 294 297 293 295 295 301 301 302 302 301 298 303 297 297 293 296 300 306 310 309 311 311 313 315 318
307 308 310 311 311 310 301 293 294 295 295 295 291 293 291 292 291 292 292 292 291 294 297 295 290 298 298 301 302 301 304 297 297 288 287 293 295 296 304 306 309 309 311 314 317
309 304 309 311 310 305 296 295 294 296 296 293 292 292 291 290 290 289 290 291 292 293 296 293 292 292 295 294 294 297 296 299 299 298 290 289 294 307 307 307 307 308 311 312 315
305 298 308 309 299 299 295 293 293 294 295 294 294 292 290 290 288 288 288 291 293 293 290 293 291 287 290 295 295 295 292 294 290 292 296 295 294 306 306 307 307 307 308 312 315
299 299 307 306 292 292 294 292 294 292 292 292 291 292 293 290 287 288 289 292 292 292 290 292 288 284 285 290 294 292 292 292 291 293 291 289 294 304 304 304 304 304 307 310 313
299 294 299 299 298 293 290 290 290 294 292 293 292 293 291 290 291 289 288 290 292 292 293 292 289 286 282 284 288 287 290 291 289 287 289 290 295 300 303 304 305 303 303 307 311
299 295 294 291 293 293 293 291 289 289 294 294 291 291 290 288 289 288 290 290 292 292 293 292 286 287 287 287 287 286 286 287 286 289 287 291 291 296 298 297 298 300 303 304 307
295 294 298 294 293 292 289 290 288 290 291 290 290 291 292 290 290 288 290 291 289 292 291 293 285 287 285 287 287 285 287 287 287 287 288 288 288 295 296 297 296 298 302 304 304
300 300 295 291 290 291 291 289 288 291 293 293 292 292 291 292 295 296 296 296 295 292 291 290 288 286 282 286 285 282 287 288 289 290 289 286 291 295 294 295 296 298 299 300 302
Wind_Speed
19 19 19 18 17 16 15 14 13 11 9 10 9 8 6 4 7 10 12 2 2 7 7 13 15 12 12 12 10 10 12 16 20 18 16 4 10 5 2 5 4 3 6 8 19
20 20 20 20 19 18 17 15 13 12 11 9 8 7 5 5 11 14 4 5 5 11 14 20 20 16 14 14 10 14 15 22 19 13 13 10 9 10 9 9 7 6 3 7 18
22 22 21 21 20 18 18 16 14 13 10 9 7 6 5 8 9 5 4 9 10 10 10 12 17 18 19 14 16 14 20 18 14 10 16 14 11 8 13 14 3 3 7 14 15
23 23 23 22 21 20 18 17 16 14 11 7 5 5 4 9 4 6 6 10 10 14 12 10 16 20 19 19 18 15 19 19 15 18 12 14 7 11 13 16 5 3 4 14 19
24 24 24 23 22 19 18 17 16 14 11 8 4 4 7 8 6 8 4 10 11 15 19 18 16 19 19 16 15 18 19 11 16 20 15 15 16 17 15 14 12 6 4 12 16
23 23 23 24 23 20 17 16 14 12 9 7 6 8 7 10 6 5 4 8 9 17 18 21 14 15 12 12 18 9 14 19 15 16 18 20 20 20 21 12 12 13 10 10 15
25 24 24 23 22 20 17 15 13 11 8 8 9 7 7 8 2 6 4 5 6 15 15 16 7 13 7 12 15 13 14 14 16 16 19 18 25 27 23 13 18 14 14 11 13
26 26 25 23 22 19 17 14 10 2 8 9 11 6 6 3 2 8 6 2 7 7 11 12 6 14 8 2 6 12 17 17 18 19 15 17 22 22 23 22 19 22 16 10 11
26 26 25 24 21 17 14 10 1 6 9 12 8 7 1 6 3 6 6 6 9 8 9 10 12 11 10 14 13 14 15 18 14 10 14 20 20 19 20 17 16 19 20 20 14
27 27 27 25 21 15 10 5 9 13 8 6 4 7 5 2 7 6 4 12 6 10 11 12 10 11 13 14 15 15 14 15 11 8 14 17 18 17 10 17 17 18 19 22 18
29 28 28 25 21 15 6 6 6 8 7 6 7 5 4 7 7 5 8 11 8 14 12 13 12 15 17 17 17 16 12 13 12 4 10 13 15 16 17 19 16 16 18 20 21
29 29 27 24 23 15 8 5 5 7 8 2 5 6 5 4 4 7 6 11 11 15 14 8 15 14 12 13 15 17 18 19 16 11 13 16 20 18 19 18 19 18 19 20 19
28 28 29 25 20 7 5 7 8 5 8 3 2 2 4 3 2 6 5 10 13 17 15 18 12 5 15 14 15 16 17 14 15 12 13 14 21 21 20 23 21 21 20 20 18
28 28 26 28 6 7 1 12 9 6 8 7 5 4 3 2 4 4 3 7 11 16 17 17 16 12 14 16 17 18 17 16 15 15 15 16 17 16 14 17 23 21 22 20 18
29 28 24 12 8 6 10 12 3 6 7 5 4 2 1 2 6 4 0 5 13 18 10 15 17 15 18 18 18 16 16 14 17 17 16 19 12 15 17 13 17 19 22 20 19
31 27 21 4 5 7 13 8 5 9 5 6 2 2 1 5 3 5 1 0 2 9 17 19 5 9 13 13 15 12 12 11 15 15 17 22 19 14 13 16 13 14 16 11 14
32 26 11 5 9 15 9 5 7 8 4 4 1 5 6 4 2 6 4 7 4 8 14 9 15 7 7 16 17 14 15 12 14 15 20 16 18 15 10 6 6 11 10 9 9
32 21 6 3 12 8 5 6 8 4 2 2 3 5 5 6 4 3 1 2 6 8 10 11 12 10 2 7 14 16 20 16 22 17 18 19 12 13 7 3 1 3 4 5 7
29 2 4 12 10 5 7 8 6 5 4 5 6 6 4 3 6 4 3 4 5 8 6 8 11 5 1 3 5 12 15 15 20 21 18 14 14 10 10 6 2 3 5 9 11
8 5 3 17 7 6 6 3 2 4 5 4 6 2 5 1 7 3 1 4 2 4 4 4 10 8 4 10 10 10 9 10 12 21 24 19 23 16 15 5 2 5 9 10 11
6 5 9 18 5 5 4 4 2 3 6 5 4 5 4 7 5 4 3 6 2 2 3 3 6 10 6 4 12 7 12 13 9 13 17 19 16 10 12 6 6 8 10 12 12
6 4 11 13 2 2 3 4 3 4 2 4 6 6 5 1 4 3 4 1 1 3 5 4 7 11 13 6 3 2 7 11 10 16 14 17 10 7 7 8 6 7 10 12 13
8 4 6 11 4 4 4 3 3 5 3 3 3 4 1 3 5 3 2 4 1 4 2 2 6 9 12 11 11 8 2 3 7 11 18 11 13 8 6 5 6 9 12 12 13
6 5 3 6 4 5 6 2 3 3 1 4 5 4 4 6 5 4 4 3 2 6 4 4 9 11 12 11 7 7 7 6 9 9 16 21 24 8 6 6 7 11 13 13 13
4 5 4 6 5 7 6 4 8 4 4 3 4 5 5 8 5 9 3 3 7 4 11 6 12 9 12 11 12 14 15 14 14 14 14 15 14 17 12 15 16 13 12 12 12
6 6 2 5 5 7 2 3 5 6 5 2 9 5 6 10 10 13 7 8 6 3 7 6 9 8 14 16 15 19 20 18 18 18 17 17 22 17 11 10 13 12 11 11 12
1 1 5 3 3 5 4 4 4 10 6 5 5 9 10 7 9 10 10 11 13 12 11 10 10 11 13 8 12 13 19 19 18 19 17 19 20 11 12 12 11 11 11 13 13
Wind_Direction
348 345 342 340 338 336 332 326 322 320 317 315 313 309 302 285 262 227 247 265 140 140 223 165 188 188 192 203 216 233 241 239 231 234 251 207 237 165 133 253 203 233 282 23 137
345 344 341 339 338 334 330 324 321 319 314 314 313 310 291 275 257 257 237 123 215 185 194 184 185 189 201 206 203 217 228 240 250 267 258 253 245 190 209 196 226 207 124 137 152
346 343 340 339 335 331 327 321 317 309 307 310 310 304 274 259 269 142 90 165 190 204 208 208 198 195 219 216 210 219 241 238 250 259 273 273 252 240 255 241 167 356 142 165 171
343 341 339 337 333 331 326 318 312 306 300 292 293 284 250 238 313 94 83 164 185 208 204 193 198 203 218 213 222 242 235 254 264 254 251 249 263 263 246 261 110 356 123 176 184
340 340 337 336 333 328 323 316 309 300 292 281 255 225 226 232 266 114 165 173 186 206 210 204 197 202 215 224 225 231 249 224 257 259 257 261 261 261 255 259 277 282 173 186 196
338 337 335 336 332 327 322 313 306 294 276 251 220 184 238 265 91 137 113 141 198 206 212 210 214 212 237 229 223 221 253 252 240 244 249 253 258 260 255 256 286 251 226 200 206
338 338 337 333 332 328 324 320 311 282 240 208 196 227 242 277 9 171 228 278 231 207 212 210 242 192 211 224 226 259 255 241 234 240 249 252 257 251 257 258 263 261 236 210 203
339 338 338 334 333 333 327 325 326 64 169 176 187 231 269 120 314 254 229 151 166 203 215 206 206 232 233 276 217 234 239 254 232 221 231 230 252 237 244 249 248 253 240 227 206
340 337 337 336 336 335 328 325 57 119 144 157 203 256 183 143 218 52 189 163 157 162 172 184 215 230 195 232 229 219 250 227 248 194 237 215 248 250 244 243 256 254 248 223 218
341 339 339 338 335 337 325 275 133 146 177 229 255 237 202 101 324 315 174 151 165 157 140 180 207 225 228 223 234 230 219 257 258 174 227 233 241 257 247 246 246 250 250 250 224
340 341 337 336 333 335 274 198 224 181 228 314 329 297 318 332 273 139 161 193 179 188 201 195 221 224 231 228 258 277 266 262 260 260 266 264 254 248 252 256 247 250 254 242 236
338 337 336 332 325 315 277 29 23 348 297 244 246 264 283 312 204 171 182 201 195 213 211 185 232 247 243 245 244 243 245 245 249 253 261 260 255 248 252 255 252 257 247 250 203
337 336 333 328 318 285 359 34 322 283 255 154 161 341 30 249 98 75 244 215 224 226 210 243 258 283 228 226 230 234 240 242 251 254 239 266 263 251 248 252 253 250 254 253 236
336 334 333 325 292 346 225 346 324 212 263 127 164 84 351 202 137 21 23 269 229 250 237 242 256 239 238 239 226 247 222 248 248 248 253 227 269 257 227 238 237 243 240 236 237
334 333 329 324 317 323 352 333 354 215 267 84 95 53 59 33 348 82 62 219 251 247 245 236 226 232 237 238 233 247 266 230 249 251 257 246 248 260 246 225 247 240 242 246 247
333 332 330 224 254 349 329 318 212 234 227 140 98 346 217 52 69 350 7 246 349 262 237 258 301 271 269 258 243 252 264 256 256 253 245 237 250 249 242 214 237 243 245 272 271
331 330 315 310 335 322 317 217 241 251 112 106 6 341 319 358 62 16 49 50 352 274 220 207 241 229 261 250 243 232 236 238 225 225 243 238 235 244 266 17 336 327 325 334 327
327 321 161 301 333 317 251 226 255 46 15 66 307 299 310 345 101 36 282 239 54 330 297 275 209 201 133 262 290 217 232 235 243 247 255 222 229 258 99 76 36 285 320 345 343
313 314 243 355 340 281 253 237 341 14 359 323 281 265 162 172 321 300 59 16 43 10 290 306 244 130 155 298 284 240 236 261 271 267 265 264 210 139 158 117 100 61 29 12 0
324 307 55 342 328 256 251 317 326 2 317 288 280 304 267 42 296 309 205 68 25 27 337 46 274 241 336 287 223 262 349 234 221 247 247 236 246 253 161 140 79 36 18 13 357
287 300 25 344 264 247 302 29 309 24 323 305 304 275 291 312 301 303 36 109 24 6 310 308 248 258 263 240 297 239 235 238 291 263 244 246 248 24 102 107 58 25 9 3 357
322 307 10 336 251 4 357 350 343 298 297 287 292 286 279 316 286 271 284 360 50 346 284 46 298 272 272 67 347 310 284 290 272 255 245 262 257 92 91 77 38 22 4 354 351
330 303 14 328 17 12 356 292 301 316 328 297 275 285 297 280 281 249 239 111 162 301 318 26 229 274 221 198 216 245 202 270 246 282 264 251 257 116 115 101 37 9 355 345 346
304 314 65 59 49 340 352 2 299 21 250 308 309 267 255 247 230 291 240 168 245 275 85 278 267 270 284 355 331 274 233 258 266 256 240 253 269 173 249 271 307 333 323 329 334
4 52 10 337 25 343 319 329 315 317 321 292 212 279 283 278 258 254 302 235 221 209 237 257 273 284 281 287 283 268 265 264 246 257 262 263 286 283 304 316 306 301 299 310 332
338 337 337 307 310 297 120 79 334 345 307 277 281 357 293 275 298 307 310 276 285 218 250 205 275 276 282 277 273 276 267 255 248 253 255 266 267 274 290 293 302 298 289 298 310
45 198 286 114 277 290 39 20 326 314 274 274 329 308 283 322 330 298 289 282 277 279 271 247 267 272 279 292 297 273 261 248 245 236 245 250 262 305 295 281 294 307 307 291 292